Home   Weather   Spain   Torrevieja   Past weeks
Flag for Spain

Past Weather in Torrevieja, Alicante, Spain — Yesterday and Last 2 Weeks

Currently: 63 °F. Clear. (Weather station: Murcia / San Javier, Spain). See more current weather

Past Weather in Torrevieja — Graph

°F

Torrevieja Temperature Yesterday

Maximum temperature yesterday: 73 °F (at 2:00 pm)
Minimum temperature yesterday: 45 °F (at 4:30 am)
Average temperature yesterday: 58 °F

High & Low Weather Summary for the Past Weeks

 TemperatureHumidityPressure
High81 °F (Feb 12, 3:30 pm)100% (Feb 17, 3:30 am)30.57 "Hg (Feb 17, 3:30 am)
Low45 °F (Feb 20, 4:30 am)25% (Feb 7, 1:00 pm)29.30 "Hg (Feb 9, 8:00 pm)
Average61 °F70%30.10 "Hg
* Reported Feb 6 8:00 pm — Feb 21 8:30 pm, Torrevieja. Weather by CustomWeather, © 2024

Note: Actual official high and low records may vary slightly from our data, if they occured in-between our weather recording intervals... More about our weather records

Torrevieja Weather History for the Previous 24 Hours

Scroll right to see more
 ConditionsComfort  
Time TempWeatherWind HumidityBarometerVisibility
8:30 pm
Wed, Feb 21
63 °FClear.9 mph83%30.21 "Hg10 mi
8:00 pm63 °FClear.9 mph83%30.21 "Hg10 mi
7:00 pm63 °FPassing clouds.10 mph83%30.21 "HgN/A
6:30 pm63 °FPassing clouds.12 mph83%30.21 "HgN/A
6:00 pm64 °FPassing clouds.13 mph78%30.21 "HgN/A
5:30 pm64 °FPassing clouds.13 mph78%30.21 "HgN/A
5:00 pm66 °FPassing clouds.13 mph73%30.21 "HgN/A
4:30 pm68 °FPassing clouds.14 mph69%30.21 "HgN/A
4:00 pm68 °FPassing clouds.13 mph64%30.24 "HgN/A
3:30 pm70 °FPassing clouds.10 mph60%30.24 "HgN/A
3:00 pm70 °FPassing clouds.9 mph60%30.27 "HgN/A
2:30 pm68 °FPassing clouds.9 mph69%30.27 "HgN/A
2:00 pm68 °FPassing clouds.7 mph69%30.30 "HgN/A
1:30 pm66 °FClear.7 mph73%30.33 "Hg6 mi
1:00 pm66 °FClear.6 mph68%30.33 "Hg5 mi
12:30 pm66 °FPassing clouds.5 mph68%30.36 "Hg5 mi
12:00 pm66 °FScattered clouds.5 mph64%30.36 "Hg5 mi
11:30 am64 °FPartly sunny.3 mph73%30.36 "Hg5 mi
11:00 am63 °FPartly sunny.5 mph73%30.39 "Hg5 mi
10:30 am63 °FPartly sunny.6 mph73%30.36 "Hg6 mi
10:00 am61 °FPartly sunny.5 mph77%30.36 "HgN/A
9:30 am61 °FPartly sunny.5 mph77%30.36 "Hg5 mi
9:00 am59 °FPartly sunny.2 mph82%30.36 "Hg5 mi
8:30 am57 °FPartly sunny.2 mph88%30.36 "Hg5 mi
8:00 am57 °FPartly sunny.3 mph88%30.36 "Hg5 mi
7:30 am57 °FPassing clouds.3 mph88%30.33 "Hg6 mi
7:00 am57 °FPassing clouds.2 mph94%30.36 "Hg6 mi
6:30 am57 °FOvercast.3 mph88%30.33 "Hg4 mi
6:00 am57 °FOvercast.3 mph94%30.33 "Hg4 mi
5:30 am59 °FOvercast.3 mph88%30.33 "Hg4 mi
5:00 am57 °FOvercast.3 mph94%30.33 "Hg4 mi
4:30 am59 °FOvercast.2 mph88%30.33 "HgN/A
4:00 am59 °FPassing clouds.2 mph94%30.33 "Hg6 mi
3:30 am61 °FOvercast.2 mph88%30.36 "Hg6 mi
3:00 am61 °FLow clouds.5 mph88%30.36 "Hg6 mi
2:30 am59 °FLow clouds.5 mph94%30.36 "Hg4 mi
2:00 am57 °FFog.6 mph100%30.36 "Hg2 mi
12:30 am52 °FClear.5 mph88%30.36 "Hg10 mi
12:00 am52 °FClear.3 mph88%30.36 "Hg10 mi
11:30 pm
Tue, Feb 20
52 °FClear.2 mph88%30.36 "Hg10 mi
11:00 pm54 °FClear.3 mph88%30.36 "Hg10 mi
10:30 pm54 °FClear.3 mph94%30.36 "Hg10 mi
10:00 pm55 °FClear.6 mph88%30.36 "Hg10 mi
9:30 pm55 °FClear.6 mph88%30.36 "Hg10 mi
9:00 pm57 °FClear.3 mph82%30.33 "Hg10 mi
Weather by CustomWeather, © 2024

See weather overview